Regional Weather Roundup
Issued by NWS

Home | Current Version | Previous Version | Text Only | Print | Product List | Glossary On
Versions: 1 2 3 4 5 6 7 8 9 10 11 12 13 14 15 16 17 18 19 20 21 22 23 24 25 26 27 28 29 30 31 32 33 34 35 36 37 38 39 40 41 42 43 44 45 46 47 48 49 50
000
ASUS45 KREV 300510
RWRNV
NEVADA REGIONAL WEATHER ROUNDUP
NATIONAL WEATHER SERVICE RENO NV
1000 PM PDT SUN MAY 29 2016

NOTE: "FAIR" INDICATES FEW OR NO CLOUDS BELOW 12,000 FEET WITH NO
SIGNIFICANT WEATHER AND/OR OBSTRUCTIONS TO VISIBILITY.

NVZ001-003-004-300600-
WESTERN NEVADA

CITY           SKY/WX    TMP DP  RH WIND       PRES   REMARKS
RENO           MOCLDY    70  34  26 NW9       30.09R
CARSON CITY    FAIR      68  32  26 NW7       30.11R
MINDEN         FAIR      61  37  41 SE7       30.11R
SLIDE MTN        N/A     45  23  42 W13         N/A
FALLON         CLEAR     73  29  19 NW12      30.01R
LOVELOCK       CLEAR     71  29  21 NW8       30.01R
HAWTHORNE      CLEAR     75  36  23 NW8       30.02R
$$

NVZ002-CAZ072-073-300600-
NORTHERN AND CENTRAL SIERRA

CITY           SKY/WX    TMP DP  RH WIND       PRES   REMARKS
S. LAKE TAHOE  CLEAR     49  37  63 CALM      30.21R
TRUCKEE        CLEAR     46  36  66 CALM      30.20R
SQUAW VLY 8000 NOT AVBL
SUSANVILLE     CLEAR     63  37  39 W7        30.09R
MAMMOTH LAKES  FAIR      51  38  63 W7        30.24R
BRIDGEPORT     FAIR      51  35  54 CALM      30.20R
$$

NVZ030-031-036-300600-
NORTHERN NEVADA

CITY           SKY/WX    TMP DP  RH WIND       PRES   REMARKS
ELKO           MOCLDY    62  44  51 S3        30.05R
WINNEMUCCA     CLEAR     59  29  31 W5        30.05R
WENDOVER       CLOUDY    63  43  48 NW15G32   30.08R
$$

NVZ035-037-300600-
CENTRAL NEVADA

CITY           SKY/WX    TMP DP  RH WIND       PRES   REMARKS
ELY            CLOUDY    55  37  50 VRB3      30.18R
EUREKA           N/A     60  38  43 SE12      30.11R
$$

NVZ013-014-300600-
SOUTH CENTRAL NEVADA

CITY           SKY/WX    TMP DP  RH WIND       PRES   REMARKS
TONOPAH        CLOUDY    68  32  26 SE3       30.10R
$$

NVZ017-020-022-300600-
SOUTHERN NEVADA

CITY           SKY/WX    TMP DP  RH WIND       PRES   REMARKS
LAS VEGAS      CLEAR     83  15   8 S7        29.84R
N. LAS VEGAS   CLEAR     83  20   9 S8        29.87R
NELLIS AFB     CLEAR     84  22  10 S12       29.85R
HENDERSON      CLEAR     78  23  13 S13       29.92R
MERCURY        PTCLDY    70  24  17 E5        29.93R
$$



USA.gov is the U.S. government's official web portal to all federal, state and local government web resources and services.